Tracking 27097 objects as of 29-Mar-2023
HD Live streaming from Space Station
objects crossing your sky now

SHIYAN 19 (SY-19)

Track SHIYAN 19 (SY-19) now!
10-day predictions


NORAD ID: 55861
Int'l Code: 2023-034A
Perigee: 502.2 km
Apogee: 520.7 km
Inclination: 97.5 °
Period: 94.7 minutes
Semi major axis: 6882 km
RCS: Unknown
Launch date: March 15, 2023
Source: People's Republic of China (PRC)
Launch site: Jiuquan Satellite Launch Center, China (JSC)
Your satellite tracking list
Your tracking list is empty




NASA's NSSDC Master Catalog

Two Line Element Set (TLE):
1 55861U 23034A   23088.04336868  .00009335  00000-0  42890-3 0  9992
2 55861  97.4656 276.2722 0013438 227.8896 249.0161 15.20517365  2058
Source of the keplerian elements: AFSPC